If you wish to contribute or participate in the discussions about articles you are invited to join SKYbrary as a registered user

 Actions

Yonaguni

From SKYbrary Wiki

ROYN
Airport
ICAO: ROYN – IATA: OGN
Summary
Name Yonaguni
Region Asia and Pacific
Territory Japan JP.gif
Location Yonaguni, Okinawa Prefecture
Serving Yonaguni
Elevation 14.935 m
49 ft14.935 m
Coordinates 24° 27' 55.14" N, 122° 58' 48.23" E
Runways
Designator Length Width Surface ROPS
8/26 1500 m4,921.26 ft
46 m150.919 ft
ASP yes/yes


METAR
Observation ROYN 211200Z AUTO 13007KT 9999 NCD 21/17 Q1026
Station Yonaguni Airport
Date/Time 21 February 2020 12:00:00
Wind direction 130°
Wind speed 07 kts
Lowest cloud amount no clouds detected
Temperature 21°C
Dew point 17°C
Humidity 77%
QNH 1026 hPa
Weather condition n/a

Yonaguni Airport is a third-class airport located in Yonaguni, Yaeyama District, Okinawa Prefecture, Japan.

Climatology

Humid Sub-tropical climate (Köppen climate classification Cfa)

Maps

Terrain

Loading map...

Airport Layout

Loading map...


Accidents & Serious Incidents at or in vicinity of ROYN

None on SKYbrary